Flag for Germany Weather past 2 weeks in Kreuztal, North Rhine-Westphalia, Germany

Now
46 °F

Fog.


Feels Like: 45 °F
Forecast: 43 / 64 °F
Wind: 3 mph from North

Location: Hessen

Current Time: Aug 21, 2014 at 9:10:54 AM

Latest Report: Aug 21, 2014 at 8:20 AM


Visibility: 1 mi

Pressure: 30.04 "Hg

Humidity: 100%

Dew point: 46 °F

Location of KreuztalLocation

Historic Weather in Kreuztal — Graph

°F

Kreuztal temperature yesterday

Maximum temperature yesterday: 57 °F (at 2:50 PM)
Minimum temperature yesterday: 45 °F (at 7:50 AM)
Average temperature yesterday: 53 °F

Past Weeks' High & Low Weather Summary

 TemperatureHumidityPressure
High72 °F (Aug 8, 1:50 PM)100% (Aug 7, 7:20 AM)30.09 "Hg (Aug 7, 7:20 AM)
Low45 °F (Aug 20, 7:50 AM)50% (Aug 6, 4:50 PM)29.68 "Hg (Aug 13, 2:50 PM)
Average58 °F80%29.92 "Hg
* Reported Aug 6 7:50 AM — Aug 21 7:50 AM, Kreuztal, Weather by CustomWeather, © 2014

Note: Actual official high and low records may vary slightly from our data, if they occured in-between our weather recording intervals... More about our weather records

Advertising

Kreuztal weather history for previous 24 hours

 ConditionsComfort  
Time TempWeatherWind HumidityBarometerVisibility
7:50 AM
Aug 21
46 °FFog.5 mph100%30.04 "Hg0 mi
7:20 AM46 °FFog.5 mph100%30.04 "Hg1 mi
9:50 PM
Aug 20
50 °FPassing clouds.12 mph82%30.04 "HgN/A
9:20 PM52 °FSunny.3 mph77%30.01 "Hg10 mi
8:50 PM54 °FSunny.3 mph72%30.01 "Hg10 mi
8:20 PM54 °FSunny.3 mph72%30.01 "Hg10 mi
7:50 PM54 °FScattered clouds.3 mph72%30.01 "HgN/A
7:20 PM55 °FPartly sunny.3 mph63%30.01 "HgN/A
6:50 PM55 °FScattered clouds.7 mph63%30.01 "HgN/A
6:20 PM57 °FScattered clouds.7 mph59%30.01 "HgN/A
5:50 PM57 °FPartly sunny.7 mph59%30.01 "HgN/A
5:20 PM55 °FPartly sunny.6 mph63%30.01 "HgN/A
4:50 PM57 °FPartly sunny.6 mph59%30.01 "HgN/A
4:20 PM57 °FBroken clouds.8 mph55%30.01 "HgN/A
3:50 PM55 °FBroken clouds.6 mph63%30.01 "HgN/A
3:20 PM55 °FBroken clouds.3 mph63%30.04 "HgN/A
2:50 PM57 °FScattered clouds.7 mph59%30.04 "HgN/A
2:20 PM55 °FScattered clouds.8 mph63%30.04 "HgN/A
1:50 PM52 °FScattered clouds.5 mph77%30.04 "HgN/A
1:20 PM55 °FScattered clouds.6 mph63%30.04 "HgN/A
12:50 PM54 °FScattered clouds.7 mph63%30.04 "HgN/A
12:20 PM54 °FScattered clouds.7 mph63%30.04 "HgN/A
11:50 AM54 °FScattered clouds.7 mph67%30.04 "HgN/A
11:20 AM54 °FScattered clouds.8 mph67%30.04 "HgN/A
10:50 AM52 °FScattered clouds.7 mph72%30.04 "HgN/A
10:20 AM50 °FPassing clouds.8 mph82%30.04 "HgN/A
9:50 AM50 °FSunny.6 mph76%30.04 "Hg10 mi
9:20 AM50 °FPassing clouds.6 mph82%30.01 "HgN/A
Weather by CustomWeather, © 2014

See weather overviewHow to use our weather pages